Home   Weather   Green Bay   Past weeks

Flag for USA Past Weather in Green Bay, Wisconsin, USA — Yesterday and Last 2 Weeks

Now
37 °F

Mostly cloudy.


Feels Like: 29 °F
Forecast: 30 / 37 °F
Wind: 13 mph from Northwest

Location: Austin Straubel International Airport

Current Time: Dec 2, 2016 at 2:07:24 pm

Latest Report: Dec 2, 2016 at 12:53 pm


Visibility: 10 mi

Pressure: 30.17 "Hg

Humidity: 73%

Dew Point: 29 °F

Location of Green BayLocation

Past Weather in Green Bay — Graph

°F

Green Bay Temperature Yesterday

Maximum temperature yesterday: 43 °F (at 12:53 pm)
Minimum temperature yesterday: 36 °F (at 3:53 am)
Average temperature yesterday: 39 °F

High & Low Weather Summary for the Past Weeks

 TemperatureHumidityPressure
High67 °F (Nov 17, 1:53 pm)100% (Nov 17, 11:53 pm)30.39 "Hg (Nov 17, 11:53 pm)
Low21 °F (Nov 21, 6:53 am)46% (Nov 21, 1:53 pm)29.07 "Hg (Nov 28, 10:53 pm)
Average38 °F82%29.95 "Hg
* Reported Nov 17 12:53 pm — Dec 2 12:53 pm, Green Bay, Weather by CustomWeather, © 2016

Note: Actual official high and low records may vary slightly from our data, if they occured in-between our weather recording intervals... More about our weather records

Advertising

Green Bay Weather History for the Previous 24 Hours

Scroll right to see more
 ConditionsComfort  
Time TempWeatherWind HumidityBarometerVisibility
12:53 pm
Fri, Dec 2
37 °FMostly cloudy.13 mph73%30.17 "Hg10 mi
11:53 am36 °FOvercast.10 mph70%30.16 "Hg10 mi
10:53 am35 °FOvercast.13 mph72%30.16 "Hg10 mi
9:53 am35 °FOvercast.9 mph70%30.16 "Hg10 mi
8:53 am35 °FOvercast.9 mph70%30.13 "Hg10 mi
7:53 am34 °FOvercast.12 mph70%30.10 "Hg10 mi
7:02 am34 °FOvercast.8 mph73%30.06 "Hg10 mi
5:53 am34 °FOvercast.8 mph70%30.06 "Hg10 mi
4:53 am34 °FOvercast.8 mph70%30.04 "Hg10 mi
3:53 am34 °FOvercast.12 mph70%30.03 "Hg10 mi
2:53 am34 °FOvercast.9 mph70%30.01 "Hg10 mi
2:02 am35 °FOvercast.9 mph70%29.98 "Hg10 mi
1:53 am35 °FOvercast.9 mph70%29.99 "Hg10 mi
12:53 am36 °FOvercast.6 mph70%29.97 "Hg10 mi
11:53 pm
Thu, Dec 1
36 °FOvercast.16 mph67%29.96 "Hg10 mi
10:53 pm36 °FOvercast.10 mph70%29.94 "Hg10 mi
9:53 pm37 °FOvercast.12 mph67%29.92 "Hg10 mi
8:53 pm38 °FOvercast.10 mph79%29.91 "Hg10 mi
7:53 pm39 °FOvercast.8 mph76%29.89 "Hg10 mi
6:53 pm40 °FOvercast.9 mph77%29.87 "Hg10 mi
5:53 pm39 °FOvercast.9 mph89%29.85 "Hg10 mi
4:53 pm40 °FMostly cloudy.9 mph89%29.83 "Hg10 mi
3:53 pm41 °FMostly cloudy.8 mph82%29.81 "Hg10 mi
2:53 pm42 °FMostly cloudy.10 mph76%29.79 "Hg10 mi
Weather by CustomWeather, © 2016

See weather overviewHow to use our weather pages